www.pogodaiklimat.ru

Погода и климат >> Архив погоды >> Украина >> Жашков


ПОГОДА в Жашкове

  • Прогноз погоды в Жашкове
  • Монитор погоды в Жашкове

АРХИВ ПОГОДЫ в Жашкове

Время (UTC), дата Ветер
(напр.,м/с)
 
Видим.   Явления Облачность Т
(С)
Тd
(С)
f
(%)
Тe
(С)
Тes
(С)
Комфортность P
(гПа)
Po
(гПа)
Тmin
(С)
Tmax
(С)
R
(мм)
R24
(мм)
S
(см)
00 10.09 штиль 0 н/о 3/0
[Ci fib]
+14.7 +6.0 56 +15 +15 1022.0 995.2
03 10.09 штиль 0 н/о 8/0
[Ci fib]
+11.7 +6.4 70 +11 +11 1022.7 995.6
06 10.09 ЮВ 1 20 км 5/0
[Ci fib]
+16.8 +4.8 45 +18 +21 1023.2 996.5 +11.5
09 10.09 В 2 20 км ясно +24.5 +2.6 24
12 10.09 ЮВ 1 20 км 3/0
[Ci fib]
+26.7 +3.8 23 +25 +34 комфорт 1021.1 995.4
15 10.09 В 1 20 км 3/0
[Ci fib]
+26.0 +3.9 24 +25 +26 комфорт 1021.3 995.5
18 10.09 штиль 0 н/о ясно +20.0 +5.6 39 +20 +20 1023.0 996.6 +27.4
21 10.09 штиль 0 н/о 5/0
[Ci fib]
+15.9 +5.8 51 +16 +16 1024.4 997.6
00 11.09 штиль 0 н/о ясно +12.5 +5.4 62 +12 +12 1025.4 998.3
03 11.09 штиль 0 н/о 4 балла +10.9 +5.4 69
06 11.09 штиль 0 20 км 5/0
[Ci fib]
+16.5 +5.4 48 +16 +20 1027.0 1000.2 +9.5
09 11.09 В 1 20 км 10/0
[Ci fib]
+25.1 +15.7 56 +28 +37 жарко 1026.3 1000.3
12 11.09 СВ 2 20 км 8/0
[Ci fib]
+26.9 +2.7 21 +25 +32 комфорт 1025.7 999.9
15 11.09 Ю 1 20 км 10/0
[Ci fib]
+26.3 +0.1 18 +24 +25 комфорт 1025.2 999.3
18 11.09 штиль 0 н/о 3/0
[Ci]
+18.9 +6.4 44 +19 +19 1026.3 999.7 +27.5
21 11.09 штиль 0 н/о 3/0
[Ci fib]
+15.8 +6.5 54 +16 +16 1027.0 1000.1
00 12.09 штиль 0 н/о 5/0
[Ci fib]
+13.6 +6.5 62 +13 +13 1027.4 1000.3
03 12.09 штиль 0 н/о 4/0
[Ci sp]
+11.1 +6.4 73 +11 +11 1027.7 1000.4
06 12.09 штиль 0 20 км 8/0
[Ci sp]
+16.2 +6.3 52 +16 +19 1028.2 1001.4 +10.5
09 12.09 штиль 0 20 км 6/0
[Ci fib]
+25.9 +4.4 25 +25 +36 комфорт 1027.2 1001.2
12 12.09 ЮЗ 1 20 км 6/0
[Ci fib]
+28.1 +3.0 20 +26 +34 жарко 1025.8 1000.1
15 12.09 штиль 0 20 км 8/0
[Ci fib]
+27.1 +5.9 26 +26 +27 жарко 1024.9 999.1
18 12.09 штиль 0 н/о 5/0
[Ci fib]
+18.0 +7.6 51 +18 +18 1026.2 999.6 +28.5
21 12.09 штиль 0 н/о 6/0
[Ci fib]
+14.5 +6.2 57 +14 +14 1026.6 999.6
00 13.09 штиль 0 н/о 8/0
[Ci fib]
+12.9 +6.7 66 +13 +13 1026.4 999.3
03 13.09 штиль 0 н/о 3/0
[Ci fib]
+11.7 +6.6 71 +11 +11 1026.0 998.8
06 13.09 штиль 0 20 км ясно +17.8 +7.5 51 +18 +22 1026.2 999.6 +11.7
09 13.09 штиль 0 20 км ясно +26.9 +2.7 21 +25 +38 комфорт 1024.5 998.7
12 13.09 З 1 20 км 3/3 1000 м
[Cu hum]
+27.9 +2.9 20 +26 +32 жарко 1022.4 996.7
15 13.09 З 1 20 км 4/0
[Ac trans Ci fib]
+27.5 +6.8 27 +27 +28 жарко 1021.2 995.5
18 13.09 штиль 0 н/о 3/0
[Ci fib]
+20.0 +10.1 53 +21 +21 комфорт 1022.7 996.3 +29.0
21 13.09 СЗ 1 н/о 3/0
[Ac trans]
+17.8 +8.9 56 +19 +19 1023.1 996.5
00 14.09 штиль 0 н/о 8/4 1000 м
[Sc Ci sp]
+14.9 +9.3 69 +15 +15 1023.1 996.3
03 14.09 З 1 н/о 10/10 800 м
[Sc]
+15.2 +9.0 66 +16 +16 1022.4 995.6
06 14.09 СЗ 1 20 км 10/0
[Ac As]
+17.4 +10.7 65 +18 +19 1022.9 996.3 +13.4
09 14.09 С 2 20 км 10/10 870 м
[Cb cap]
+18.6 +11.7 64 +20 +20 1023.7 997.2
12 14.09 СЗ 2 20 км 4/0
[Ci]
+20.4 +3.6 33 +22 +28 комфорт 1023.7 997.3
15 14.09 СЗ 2 20 км 1/0
[Ci fib]
+19.7 +0.7 28 +20 +21 1023.5 997.1
18 14.09 СЗ 1 н/о 3/0
[Ci fib]
+15.8 +2.9 42 +17 +17 1025.6 998.8 +21.0
21 14.09 СЗ 1 н/о ясно +10.9 +4.1 63 +11 +11 1027.2 999.9
00 15.09 штиль 0 н/о ясно +8.9 +3.9 71 +8 +8 1027.4 999.9
03 15.09 штиль 0 н/о 8/0
[Ac lent Ci fib]
+8.1 +3.7 74 +7 +7 1027.2 999.6
06 15.09 СЗ 1 20 км 5/0
[Ci fib]
+11.8 +4.5 61 +12 +15 1027.4 1000.2 +7.5
09 15.09 СЗ 1 20 км 7 баллов +19.0 +4.0 37
12 15.09 штиль 0 20 км 5/0
[Ci fib]
+21.0 +2.3 29 +21 +30 комфорт 1022.8 996.5
15 15.09 З 1 20 км 7 баллов +20.4 +1.8 29
18 15.09 ЮЗ 1 н/о 5/0
[Ci fib]
+15.2 +4.6 49 +16 +16 1019.4 992.7 +21.5
21 15.09 штиль 0 н/о 2 балла +12.0 +4.2 59
00 16.09 ЮЗ 1 н/о 3/0
[Ci fib]
+11.7 +4.4 61 +12 +12 1017.3 990.3
03 16.09 ЮЗ 1 н/о 2 балла +10.9 +4.8 66
06 16.09 ЮЗ 1 20 км 5/0
[Ci sp]
+14.6 +5.4 54 +15 +18 1014.4 987.8 +10.3
09 16.09 З 3 20 км 6 баллов +22.5 +7.8 39
12 16.09 З 4 20 км 5 баллов +24.8 +5.5 29
15 16.09 З 3 20 км 10/10 1020 м
[Sc]
+22.7 +7.0 36 +23 +23 комфорт 1010.1 984.3
18 16.09 З 3 н/о 10 баллов +20.8 +7.4 42 +25.6
21 16.09 З 1 н/о 10 баллов +18.2 +6.1 45

 

Местоположение метеостанции Жашков (Черкасская область, Украина): широта 49.25 долгота 30.10 высота над уровнем моря 224 м.

В архиве по умолчанию представлена погода в Жашкове за последнюю неделю. Архивные данные за месяц целиком и за предыдущие месяцы, начиная с января 2011 года, Вы можете получить, выбрав интересующий диапазон дат из раскрывающегося списка и нажав кнопку "Ввод!".


*Определитесь, кто Вы:
робот инопланетянин человек

Внимание! Время в таблицах - всемирное. Для получения местного времени необходимо прибавить поправку, которая равна 2 ч.

Смотрите также архив погоды в соседних городах и на ближайших метеорологических станциях:

Погода в Умани (Черкасская область, Украина) (54 км)
Погода в Белой Церкви (Киевская область, Украина) (56 км)
Погода в Звенигородке (Черкасская область, Украина) (61 км)
Погода в Гайсине (Винницкая область, Украина) (71 км)
Погода в Мироновке (Киевская область, Украина) (80 км)
Погода в Фастове (Киевская область, Украина) (93 км)
Погода в Гайвороне (Кировоградская область, Украина) (102 км)
Погода в Виннице (Винницкая область, Украина) (109 км)
Погода в Белополе (Винницкая область, Украина) (109 км)
Погода в Каневе (Черкасская область, Украина) (116 км)

Пояснения к столбцам:

Ветер - указаны скорость ветра в м/с - средняя за 10 мин, порывы в срок и между сроками (в фигурных скобках) и направление, откуда дует ветер: С - северный, СВ - северо-восточный, В - восточный, ЮВ - юго-восточный, Ю - южный, ЮЗ - юго-западный, З - западный, СЗ - северо-западный.
Видимость - горизонтальная дальность видимости в метрах или километрах. При видимости от 1 до 10 км при отсутствии осадков обычно наблюдается дымка, при ухудшении видимости до 1 км и менее - туман. В сухую погоду видимость может ухудшаться дымом, пылью или мглою.
Явления - указаны атмосферные явления, наблюдавшиеся в срок или в последний час перед сроком; фигурными скобками обозначены явления, наблюдавшиеся между сроками (за 1-3 часа до срока); квадратными скобками обозначены град или гололедные отложения с указанием их диаметра в мм.
Облачность - указаны через наклонную черту общая и нижняя облачность в баллах и высота нижней границы облаков в метрах; квадратными скобками обозначены формы облаков: Ci - перистые, Cs - перисто-слоистые, Cc - перисто-кучевые, Ac - высококучевые, As - высокослоистые, Sc - слоисто-кучевые, Ns - слоисто-дождевые, Cu - кучевые, Cb - кучево-дождевые. Подробнее классификацию облаков см. в Атласе облаков (PDF).
T - Температура воздуха - температура, измеренная на высоте 2 м над землей.
Td - Температура точки росы - температура, при понижении до которой содержащийся в воздухе водяной пар достигнет насыщения.
f - Относительная влажность воздуха - влажноcть воздуха, измеренная на высоте 2 м над землей.
Te - Эффективная температура - температура, которую ощущает одетый по сезону человек в тени. Характеристика душности погоды. При расчете учитывается влияние влажности воздуха и скорости ветра на теплоощущения человека.
Tes - Эффективная температура на солнце - температура, которую ощущает человек, с поправкой на солнечный нагрев. Характеристика знойности погоды. Зависит от высоты солнца над горизонтом, облачности и скорости ветра. Ночью, в пасмурную погоду, а также при ветре 12 м/с и более поправка равна нулю.
P - Атмосферное давление - приведенное к уровню моря атмосферное давление.
Po - Атмосферное давление - измеренное на уровне метеостанции атмосферное давление.
Tmin - Минимальная температура - минимум температуры воздуха на высоте 2 м над землей.
Tmax - Максимальная температура - максимум температуры воздуха на высоте 2 м над землей.
R - Количество осадков - Количество выпавших осадков за период времени, мм. При наведении курсора мыши на число - период времени, за который выпало указанное количество осадков.
R24 - Количество осадков - Количество выпавших осадков за 24 часа, мм.
S - Снежный покров - Высота снежного покрова, см. При наведении курсора мыши на число - состояние снежного покрова и степень покрытия местности в баллах.